www.pogodaiklimat.ru

Погода и климат >> Архив погоды >> Индонезия >> Танджунгпандан


ПОГОДА в Танджунгпандане

  • Прогноз погоды в Танджунгпандане
  • Монитор погоды в Танджунгпандане

АРХИВ ПОГОДЫ в Танджунгпандане

Время (UTC), дата Ветер
(напр.,м/с)
 
Видим.   Явления Облачность Т
(С)
Тd
(С)
f
(%)
Тe
(С)
Тes
(С)
Комфортность P
(гПа)
Po
(гПа)
Тmin
(С)
Tmax
(С)
R
(мм)
R24
(мм)
S
(см)
00 11.06 ЮВ 2 6000 м 9/4 600 м
[Cu med, cong Ac trans Ci sp]
+26.9 +25.5 92 +39 +40 очень
душно
1010.3 1004.0 +24.6 2
03 11.06 ЮВ 5 8000 м 9/5 600 м
[Cu med, cong Ac trans Ci sp]
+30.7 +25.7 75 +46 +48 опасность
перегрева
1011.1 1004.8
06 11.06 ЮВ 9 8000 м 9/5 600 м
[Cb cap Ac trans Ci sp]
+31.8 +24.1 64 +44 +44 опасность
перегрева
1009.5 1003.2
09 11.06 ЮВ 4 8000 м 9/5 600 м
[Cu med, cong Ac trans Ci sp]
+30.4 +24.1 69 +42 +43 опасность
перегрева
1008.4 1002.1
12 11.06 ЮВ 2 8000 м 9/3 600 м
[Cu med, cong Ac trans Ci sp]
+28.0 +24.5 81 +39 +39 очень
душно
1010.3 1004.0 +32.6
15 11.06 ЮВ 2 8000 м 9/3 600 м
[Cu med, cong Ac trans Ci sp]
+26.6 +24.7 89 +38 +38 очень
душно
1011.8 1005.5
18 11.06 штиль 0 7000 м 9/3 600 м
[Cu med, cong Ac trans Ci sp]
+25.7 +24.6 94 +36 +36 очень
душно
1010.7 1004.4
21 11.06 штиль 0 5000 м 9/3 600 м
[Cu med, cong Ac trans Ci sp]
+25.4 +24.4 94 +35 +35 очень
душно
1009.7 1003.3
00 12.06 В 3 2000 м слаб. дождь 10/8 400 м
[Cb cap Ac trans Ci sp]
+25.1 +24.3 95 +35 +35 очень
душно
1012.0 1005.7 +24.8 0.0 0.0
03 12.06 штиль 0 2000 м слаб. дождь 10/8 500 м
[Cb cap Ac trans Ci sp]
+24.3 +23.5 95 +33 +35 очень
душно
1013.0 1006.7 21
06 12.06 В 3 4000 м слаб. дождь 10/8 500 м
[Cb cap Ac trans Ci sp]
+24.3 +23.2 94 +33 +34 очень
душно
1010.9 1004.6 4
09 12.06 ЮВ 2 8000 м {дождь} 9/4 600 м
[Cu med, cong Ac trans Ci sp]
+27.6 +23.8 80 +38 +39 очень
душно
1009.2 1002.9 0.0
12 12.06 штиль 0 7000 м {дождь} 9/4 600 м
[Cu med, cong Ac trans Ci sp]
+26.2 +24.4 90 +37 +37 очень
душно
1010.2 1003.9 +30.7 0.0
15 12.06 ЮЗ 2 7000 м 9/5 500 м
[Cb cap Ac trans Ci sp]
+25.5 +24.4 94 +36 +36 очень
душно
1012.7 1006.3
18 12.06 Ю 2 7000 м 9/4 600 м
[Cu med, cong Ac trans Ci sp]
+24.9 +24.1 95 +34 +34 очень
душно
1011.3 1004.9
21 12.06 штиль 0 5000 м слаб. дождь 10/6 500 м
[Cb cap Ac trans Ci sp]
+24.8 +24.1 96 +34 +34 очень
душно
1010.5 1004.2 1
00 13.06 штиль 0 7000 м в посл. час дождь 9/5 600 м
[Cu med, cong Ac trans Ci sp]
+24.8 +24.1 96 +34 +35 очень
душно
1012.3 1006.0 +23.7 2
03 13.06 ЮВ 3 8000 м 9/5 600 м
[Cu med, cong Ac trans Ci sp]
+27.8 +24.3 81 +39 +43 очень
душно
1012.9 1006.6
06 13.06 ЮВ 3 8000 м 9/5 600 м
[Cu med, cong Ac trans Ci sp]
+30.8 +24.2 68 +43 +47 опасность
перегрева
1010.5 1004.2
09 13.06 В 3 7000 м в посл. час дождь 9/5 600 м
[Cb cap Ac trans Ci sp]
+28.0 +25.1 84 +40 +41 очень
душно
1010.0 1003.7 0.0
12 13.06 штиль 0 4000 м слаб. дождь 9/5 500 м
[Cb cap Ac trans Ci sp]
+24.4 +23.3 94 +33 +33 очень
душно
1012.0 1005.7 +31.5 3
15 13.06 СВ 2 5000 м слаб. дождь 9/5 500 м
[Cb cap Ac trans Ci sp]
+24.2 +23.5 96 +33 +33 очень
душно
1013.0 1006.6 0.5
18 13.06 В 2 7000 м слаб. дождь 9/5 600 м
[Cb cap Ac trans Ci sp]
+24.7 +24.2 97 +34 +34 очень
душно
1010.4 1004.1 0.7
21 13.06 штиль 0 6000 м {дождь} 9/5 600 м
[Cb cap Ac trans Ci sp]
+24.6 +23.9 96 +34 +34 очень
душно
1009.3 1003.0 0.0
00 14.06 штиль 0 7000 м {дождь} 9/3 600 м
[Cu med, cong Ac trans Ci sp]
+25.1 +24.6 97 +35 +36 очень
душно
1010.6 1004.3 +23.9 5
03 14.06 ЮВ 4 9000 м 9/4 600 м
[Cu med, cong Ac trans Ci sp]
+30.2 +24.1 70 +42 +46 опасность
перегрева
1011.3 1005.0
06 14.06 ЮВ 3 9000 м 9/4 600 м
[Cu med, cong Ac trans Ci sp]
+30.4 +25.0 73 +44 +49 опасность
перегрева
1009.4 1003.1
09 14.06 ЮВ 3 9000 м 9/5 500 м
[Cb cap Ac trans Ci sp]
+30.0 +25.4 76 +44 +45 опасность
перегрева
1007.5 1001.2
12 14.06 ЮВ 3 7000 м 9/5 500 м
[Cb cap Ac trans Ci sp]
+27.2 +25.0 88 +39 +39 очень
душно
1009.8 1003.5 +32.5
15 14.06 Ю 2 7000 м смерч (торнадо) {туман} 9/3 600 м
[Cu med, cong Ac trans Ci sp]
+26.1 +24.7 92 +37 +37 очень
душно
1012.0 1005.7
18 14.06 штиль 0 6000 м 9/3 600 м
[Cu med, cong Ac trans Ci sp]
+26.4 +24.9 91 +38 +38 очень
душно
1011.3 1005.0
21 14.06 Ю 2 6000 м 9/4 600 м
[Cu med, cong Ac trans Ci sp]
+25.7 +24.3 92 +36 +36 очень
душно
1009.8 1003.5
00 15.06 Ю 3 8000 м 8/3 600 м
[Cu med, cong Ac trans Ci sp]
+26.5 +25.0 91 +38 +38 очень
душно
1011.5 1005.2 +25.0
03 15.06 ЮВ 4 10 км 9/5 600 м
[Cu med, cong Ac trans Ci sp]
+30.5 +24.5 70 +43 +46 опасность
перегрева
1011.9 1005.5
06 15.06 ЮВ 5 10 км 9/5 600 м
[Cb cap Ac trans Ci sp]
+32.2 +24.1 62 +44 +46 опасность
перегрева
1009.3 1003.0
09 15.06 ЮВ 5 10 км 9/4 600 м
[Cu med, cong Ac trans Ci sp]
+31.2 +24.5 68 +44 +45 опасность
перегрева
1007.4 1001.3
12 15.06 ЮВ 3 8000 м 9/3 600 м
[Cu med, cong Ac trans Ci sp]
+28.0 +24.6 82 +40 +40 очень
душно
1009.9 1003.6 +33.0
15 15.06 ЮВ 2 8000 м 9/4 600 м
[Cu med, cong Ac trans Ci sp]
+27.0 +25.2 90 +39 +39 очень
душно
1012.0 1005.6
18 15.06 ЮВ 2 8000 м 9/4 600 м
[Cu med, cong Ac trans Ci sp]
+26.5 +24.7 90 +38 +38 очень
душно
1010.8 1004.5
21 15.06 штиль 0 8000 м 9/3 600 м
[Cu med, cong Ac trans Ci sp]
+25.3 +24.3 94 +35 +35 очень
душно
1010.0 1003.6
00 16.06 В 2 8000 м 9/4 600 м
[Cu med, cong Ac trans Ci sp]
+24.6 +23.0 91 +33 +33 очень
душно
1011.3 1004.9 +25.2
03 16.06 В 4 9000 м 9/5 600 м
[Cu med, cong Ac trans Ci sp]
+30.4 +25.3 74 +44 +47 опасность
перегрева
1011.9 1005.6
06 16.06 В 4 9000 м 9/5 600 м
[Cb cap Ac trans Ci sp]
+31.8 +23.7 62 +43 +47 опасность
перегрева
1010.4 1004.1
09 16.06 Ю 3 5000 м в посл. час дождь 9/6 500 м
[Cb cap Ac trans Ci sp]
+24.8 +24.4 98 +35 +35 очень
душно
1009.3 1003.0 37
12 16.06 штиль 0 6000 м {дождь} 9/4 600 м
[Cu med, cong Ac trans Ci sp]
+25.4 +25.0 98 +36 +36 очень
душно
1010.8 1004.5 +32.4 0.0
15 16.06 ЮВ 3 7000 м 9/4 600 м
[Cu med, cong Ac trans Ci sp]
+25.1 +24.4 96 +35 +35 очень
душно
1011.6 1005.3
18 16.06 ЮВ 2 7000 м 9/4 600 м
[Cu med, cong Ac trans Ci sp]
+25.5 +24.4 94 +36 +36 очень
душно
1011.2 1004.9
21 16.06 ЮВ 2 7000 м 9/4 600 м
[Cu med, cong Ac trans Ci sp]
+25.2 +23.9 93 +35 +35 очень
душно
1009.8 1003.5
00 17.06 Ю 2 7000 м 9/4 600 м
[Cu med, cong Ac trans Ci sp]
+26.2 +23.8 87 +36 +36 очень
душно
1010.8 1005.0 +24.4 37
03 17.06 ЮВ 5 8000 м 9/5 500 м
[Cb cap Ac trans Ci sp]
+29.1 +24.0 74 +40 +43 очень
душно
1011.5 1005.2
06 17.06 ЮВ 5 7000 м 9/5 500 м
[Cb cap Ac trans Ci sp]
+29.7 +24.8 75 +42 +45 опасность
перегрева
1010.2 1003.9
09 17.06 ЮВ 3 8000 м 9/5 600 м
[Cu med, cong Ac trans Ci sp]
+30.5 +22.6 63 +40 +41 очень
душно
1009.1 1002.8
12 17.06 ЮВ 3 8000 м 9/3 600 м
[Cu med, cong Ac trans Ci sp]
+27.1 +23.2 79 +36 +36 очень
душно
1010.2 1003.9 +32.5
15 17.06 ЮВ 2 8000 м 8/3 600 м
[Cu med, cong Ac trans Ci sp]
+25.9 +23.3 86 +35 +35 очень
душно
1012.0 1005.7
18 17.06 ЮВ 2 8000 м 8/3 600 м
[Cu med, cong Ac trans Ci sp]
+25.6 +23.5 88 +35 +35 очень
душно
1011.0 1004.7
21 17.06 ЮВ 3 8000 м 9/4 600 м
[Cu med, cong Ac trans Ci sp]
+26.0 +23.7 87 +35 +35 очень
душно
1010.5 1004.2

 

Местоположение метеостанции Танджунгпандан (Индонезия): широта -2.75 долгота 107.75 высота над уровнем моря 44 м.

В архиве по умолчанию представлена погода в Танджунгпандане за последнюю неделю. Архивные данные за месяц целиком и за предыдущие месяцы, начиная с января 2011 года, Вы можете получить, выбрав интересующий диапазон дат из раскрывающегося списка и нажав кнопку "Ввод!".


*Определитесь, кто Вы:
робот инопланетянин человек

Внимание! Время в таблицах - всемирное. Для получения местного времени необходимо прибавить поправку, которая равна 7 ч.

Смотрите также архив погоды в соседних городах и на ближайших метеорологических станциях:

Погода в Панкалпинанге (Индонезия) (191 км)
Погода в Кетапанге (Индонезия) (265 км)
Погода в Палембанге (Индонезия) (339 км)
Погода в Понтианаке (Индонезия) (342 км)
Погода в Джакарта порту (Индонезия) (385 км)
Погода в Танджунгкаранге (Индонезия) (387 км)
Погода в Аэропорту Сукарно-Хатта (Индонезия) (394 км)
Погода в Джакарте (Индонезия) (395 км)
Погода в Чуруге (Индонезия) (406 км)
Погода в Серанге (Индонезия) (416 км)

Пояснения к столбцам:

Ветер - указаны скорость ветра в м/с - средняя за 10 мин, порывы в срок и между сроками (в фигурных скобках) и направление, откуда дует ветер: С - северный, СВ - северо-восточный, В - восточный, ЮВ - юго-восточный, Ю - южный, ЮЗ - юго-западный, З - западный, СЗ - северо-западный.
Видимость - горизонтальная дальность видимости в метрах или километрах. При видимости от 1 до 10 км при отсутствии осадков обычно наблюдается дымка, при ухудшении видимости до 1 км и менее - туман. В сухую погоду видимость может ухудшаться дымом, пылью или мглою.
Явления - указаны атмосферные явления, наблюдавшиеся в срок или в последний час перед сроком; фигурными скобками обозначены явления, наблюдавшиеся между сроками (за 1-3 часа до срока); квадратными скобками обозначены град или гололедные отложения с указанием их диаметра в мм.
Облачность - указаны через наклонную черту общая и нижняя облачность в баллах и высота нижней границы облаков в метрах; квадратными скобками обозначены формы облаков: Ci - перистые, Cs - перисто-слоистые, Cc - перисто-кучевые, Ac - высококучевые, As - высокослоистые, Sc - слоисто-кучевые, Ns - слоисто-дождевые, Cu - кучевые, Cb - кучево-дождевые. Подробнее классификацию облаков см. в Атласе облаков (PDF).
T - Температура воздуха - температура, измеренная на высоте 2 м над землей.
Td - Температура точки росы - температура, при понижении до которой содержащийся в воздухе водяной пар достигнет насыщения.
f - Относительная влажность воздуха - влажноcть воздуха, измеренная на высоте 2 м над землей.
Te - Эффективная температура - температура, которую ощущает одетый по сезону человек в тени. Характеристика душности погоды. При расчете учитывается влияние влажности воздуха и скорости ветра на теплоощущения человека.
Tes - Эффективная температура на солнце - температура, которую ощущает человек, с поправкой на солнечный нагрев. Характеристика знойности погоды. Зависит от высоты солнца над горизонтом, облачности и скорости ветра. Ночью, в пасмурную погоду, а также при ветре 12 м/с и более поправка равна нулю.
P - Атмосферное давление - приведенное к уровню моря атмосферное давление.
Po - Атмосферное давление - измеренное на уровне метеостанции атмосферное давление.
Tmin - Минимальная температура - минимум температуры воздуха на высоте 2 м над землей.
Tmax - Максимальная температура - максимум температуры воздуха на высоте 2 м над землей.
R - Количество осадков - Количество выпавших осадков за период времени, мм. При наведении курсора мыши на число - период времени, за который выпало указанное количество осадков.
R24 - Количество осадков - Количество выпавших осадков за 24 часа, мм.
S - Снежный покров - Высота снежного покрова, см. При наведении курсора мыши на число - состояние снежного покрова и степень покрытия местности в баллах.